Location: Lawrence
(38.9720°N, 95.2350°W)
Time: 05:45:28
(UTC-05:00)

JAS-1B - Visible Passes

Search period start: 23 May 2017 00:00
Search period end: 02 June 2017 00:00
Orbit: 911 x 1744 km, 99.1° (Epoch: 22 May)

Date Brightness Start Highest point End Pass type
(mag) Time Alt. Az. Time Alt. Az. Time Alt. Az.
23 May 8.6 02:23:33 13° ESE 02:28:26 30° ENE 02:33:30 10° N visible
23 May 7.6 04:15:48 25° SSW 04:19:00 39° W 04:24:36 10° NNW visible
24 May 8.1 02:42:54 18° SE 02:47:20 42° ENE 02:52:49 10° N visible
24 May 8.1 04:35:09 20° SW 04:38:05 27° W 04:43:07 10° NW visible
25 May 7.5 03:02:15 23° SE 03:06:16 59° ENE 03:12:01 10° N visible
25 May 8.5 04:54:30 14° WSW 04:57:12 18° W 05:01:15 10° NW visible
26 May 9.6 01:33:41 10° ENE 01:35:17 11° ENE 01:36:51 10° NE visible
26 May 7.0 03:21:36 28° SSE 03:25:13 84° ENE 03:31:05 10° NNW visible
26 May 8.8 05:14:17 10° WSW 05:16:23 12° W 05:18:25 10° WNW visible
27 May 9.3 01:50:23 10° E 01:54:00 16° ENE 01:57:28 10° NNE visible
27 May 7.0 03:40:56 30° S 03:44:13 69° WSW 03:50:02 10° NNW visible
28 May 8.9 02:08:04 10° ESE 02:12:47 23° ENE 02:17:13 10° NNE visible
28 May 7.3 04:00:17 28° SSW 04:03:15 47° W 04:08:51 10° NNW visible
29 May 8.4 02:27:21 15° ESE 02:31:38 33° ENE 02:36:41 10° N visible
29 May 7.7 04:19:36 23° SW 04:22:18 32° W 04:27:29 10° NW visible
30 May 7.8 02:46:41 21° SE 02:50:32 46° ENE 02:55:59 10° N visible
30 May 8.2 04:38:57 18° SW 04:41:24 22° W 04:45:51 10° NW visible
31 May 7.2 03:06:01 27° SSE 03:09:28 67° ENE 03:15:08 10° N visible
31 May 8.6 04:58:17 12° WSW 05:00:34 15° W 05:03:41 10° WNW visible
01 Jun 9.4 01:36:15 10° E 01:38:27 12° ENE 01:40:36 10° NE visible
01 Jun 6.8 03:25:20 31° SSE 03:28:26 85° WSW 03:34:10 10° NNW visible
